Regional Weather Roundup
Issued by NWS

Home | Current Version | Previous Version | Text Only | Print | Product List | Glossary On
Versions: 1 2 3 4 5 6 7 8 9 10 11 12 13 14 15 16 17 18 19 20 21 22 23 24 25 26 27 28 29 30 31 32 33 34 35 36 37 38 39 40 41 42 43 44 45 46 47 48 49 50
000
ASUS45 KBOI 031110
RWRID
WEATHER ROUNDUP FOR IDAHO
NATIONAL WEATHER SERVICE BOISE ID
500 AM MDT SUN MAY 03 2015

NOTE: "FAIR" INDICATES FEW OR NO CLOUDS BELOW 12000 FEET
WITH NO SIGNIFICANT WEATHER AND/OR OBSTRUCTIONS TO VISIBILITY

IDZ012-014-031200-
SOUTHWEST IDAHO


CITY           SKY/WX    TMP DP  RH WIND       PRES   REMARKS
BOISE          PTCLDY    52  34  50 CALM      29.84F
CALDWELL       PTCLDY    52  28  40 W7        29.87R
MOUNTAIN HOME  CLOUDY    51  30  43 W6        29.83R
$$

IDZ016-017-031200-
SOUTHCENTRAL IDAHO


CITY           SKY/WX    TMP DP  RH WIND       PRES   REMARKS
BURLEY         MOCLDY    51  38  60 CALM      29.86R
JEROME         MOCLDY    53  30  41 S7        29.87R
TWIN FALLS     MOCLDY    55  34  45 S13       29.87R
$$

IDZ019>023-031200-
SOUTHEAST IDAHO


CITY           SKY/WX    TMP DP  RH WIND       PRES   REMARKS
IDAHO FALLS    CLOUDY    54  31  41 CALM      29.91R
POCATELLO      PTCLDY    51  39  63 E5        29.90F
REXBURG        PTCLDY    42  32  67 SE3       29.90S
$$

IDZ006-010-011-018-031-032-031200-
CENTRAL IDAHO MOUNTAINS


CITY           SKY/WX    TMP DP  RH WIND       PRES   REMARKS
MCCALL         PTCLDY    42  30  62 N6        29.92R
HAILEY         MOCLDY    48  28  46 N8        29.94S
STANLEY          N/A     28  21  75 CALM      30.00S
SALMON         PTCLDY    37  27  65 CALM      29.94R
CHALLIS        PTCLDY    41  22  46 CALM      29.95R
$$

IDZ002-004-006-007-026-031200-
NORTHERN IDAHO


CITY           SKY/WX    TMP DP  RH WIND       PRES   REMARKS
LEWISTON       CLEAR     43  28  55 CALM      29.94S
LOWELL           N/A     39  34  82 NW3       30.02R
COEUR D`ALENE  PTCLDY    43  25  49 NE9       29.99R
MULLAN PASS    CLEAR     36  13  38 N3        29.97F
$$


USA.gov is the U.S. government's official web portal to all federal, state and local government web resources and services.